GFSMW_850_temp_024.txt.gz
Temp
17 17 17 16 16 15 15 15 15 14 13 13 13 13 13 13 12 12 11 12 12 12 12 11 10 10 10 9 8 7 7 6 6 5 4 4 4 3 3 3 3 2 2
17 17 17 16 16 15 15 15 15 14 13 14 13 13 13 13 11 11 11 11 11 11 10 10 10 10 9 8 7 6 6 5 4 3 3 3 3 2 3 2 2 2 2
18 17 17 17 16 15 15 14 14 14 14 13 12 12 12 11 11 10 10 10 10 10 10 10 10 8 7 6 6 5 4 3 3 2 2 2 1 1 1 1 1 1 1
18 18 17 17 16 15 15 16 14 13 13 12 12 12 12 11 11 11 10 10 10 10 10 9 8 7 6 6 6 5 4 3 2 2 2 1 1 0 0 0 -0 -0 -0
18 18 17 17 16 16 16 14 13 12 12 11 11 12 12 11 11 10 9 9 9 9 8 7 6 6 6 5 5 4 3 2 1 1 1 1 0 0 -0 -1 -1 -1 -1
17 17 17 16 16 16 16 14 12 12 11 11 11 11 11 11 10 9 9 9 8 8 7 6 6 6 5 5 4 2 2 1 1 0 0 -0 -1 -1 -1 -1 -1 -2 -2
17 17 16 16 15 15 14 14 13 12 11 11 11 11 11 10 10 10 9 8 8 7 6 5 5 4 4 3 2 2 1 1 -0 -0 -0 -1 -1 -1 -2 -2 -2 -2 -2
16 17 16 16 15 14 13 14 13 12 11 11 11 11 10 10 9 9 8 8 6 6 6 5 4 4 3 2 2 1 0 -0 -0 -1 -1 -1 -1 -2 -3 -2 -3 -3 -3
17 17 16 16 15 14 14 14 13 12 12 11 11 10 9 9 9 9 8 7 6 6 5 4 4 4 3 2 1 0 -0 -1 -1 -1 -2 -2 -2 -2 -3 -3 -4 -4 -4
17 16 16 15 14 14 13 13 12 12 12 11 10 10 9 9 8 8 7 6 6 5 4 4 3 2 2 1 0 -0 -1 -1 -1 -2 -2 -2 -3 -3 -3 -4 -4 -5 -5
16 16 16 15 14 14 14 13 13 12 12 11 11 10 9 9 8 7 6 6 5 4 4 3 2 1 1 1 -0 -1 -1 -1 -2 -2 -2 -3 -3 -4 -4 -4 -4 -5 -5
17 17 17 16 15 15 14 13 13 13 13 12 10 10 9 8 8 7 6 5 4 4 3 3 2 1 1 -0 -1 -1 -1 -1 -2 -2 -3 -3 -3 -4 -4 -4 -5 -5 -6
17 16 16 16 16 15 15 14 13 12 11 11 10 9 8 8 7 6 5 4 3 3 2 2 1 1 0 -0 -1 -1 -1 -2 -2 -3 -3 -3 -4 -4 -5 -5 -5 -6 -6
16 16 16 16 16 15 14 13 12 11 11 10 9 8 8 7 6 5 4 3 3 2 1 1 1 1 -0 -1 -1 -1 -1 -2 -2 -3 -3 -3 -4 -5 -5 -6 -6 -7 -7
16 16 15 15 15 14 13 12 11 11 10 9 9 8 7 7 5 4 3 3 2 1 1 1 1 0 -0 -1 -1 -1 -2 -2 -3 -3 -3 -4 -4 -5 -6 -6 -7 -7 -8
17 17 16 15 14 14 13 12 11 11 10 9 8 7 7 6 4 4 3 1 1 -0 1 1 1 0 -0 -1 -1 -1 -2 -2 -3 -3 -4 -5 -5 -6 -6 -7 -8 -8 -9
15 16 16 16 15 14 13 12 12 11 9 9 7 7 6 5 3 2 1 0 -0 -0 1 1 0 -0 -1 -1 -1 -2 -2 -3 -3 -4 -4 -5 -6 -6 -7 -8 -8 -8 -9
15 15 14 14 14 14 13 12 12 10 9 8 7 6 5 3 2 1 0 -0 -1 -1 0 0 -1 -1 -1 -1 -2 -2 -2 -3 -3 -4 -5 -6 -6 -7 -7 -8 -8 -8 -9
14 14 14 14 14 13 12 11 10 9 7 6 4 3 2 1 -1 -1 -0 -1 -1 -0 -0 -1 -1 -2 -2 -2 -2 -2 -3 -3 -4 -5 -6 -6 -7 -7 -8 -8 -8 -8 -9
13 13 13 13 13 13 12 10 9 7 5 3 1 -0 -1 -1 -1 0 -0 -1 -0 -1 -1 -1 -2 -2 -2 -2 -3 -3 -3 -4 -5 -5 -6 -6 -7 -7 -8 -8 -8 -9 -9
11 11 12 12 11 10 10 9 6 4 1 -1 -1 0 -0 -0 0 -1 -1 -1 -1 -2 -1 -2 -2 -3 -3 -3 -3 -3 -4 -4 -5 -5 -6 -6 -7 -7 -8 -8 -9 -9 -10
9 9 9 8 6 5 5 4 4 3 2 1 -0 -0 -0 -0 -1 -1 -1 -1 -1 -2 -2 -2 -2 -3 -3 -3 -4 -4 -5 -5 -5 -5 -6 -6 -7 -7 -8 -8 -9 -10 -10
7 6 6 5 4 4 3 3 2 0 0 0 -1 -1 -1 -1 -1 -1 -1 -1 -2 -2 -3 -3 -4 -4 -4 -4 -5 -5 -5 -5 -5 -6 -6 -7 -7 -8 -8 -9 -9 -10 -10
4 3 3 3 2 2 1 0 0 -0 -1 -1 -1 -0 -0 -0 -1 -1 -1 -2 -2 -3 -3 -4 -4 -5 -5 -5 -5 -5 -5 -5 -6 -6 -7 -7 -7 -8 -8 -9 -9 -10 -10
2 2 1 1 -0 -0 -0 -1 -1 -1 -1 -1 -1 -1 -1 -1 -1 -2 -2 -2 -3 -3 -4 -4 -5 -5 -5 -5 -6 -6 -6 -6 -6 -6 -7 -8 -7 -8 -8 -9 -9 -10 -10
0 0 -0 -0 -1 -1 -1 -1 -2 -1 -1 -1 -2 -2 -2 -2 -2 -2 -2 -3 -3 -4 -4 -5 -5 -5 -5 -6 -6 -6 -6 -6 -6 -6 -7 -7 -7 -8 -8 -8 -9 -9 -10

GFSMW_850_temp_030.txt.gz
Temp
16 15 15 15 14 13 13 13 13 13 13 12 12 11 12 12 12 12 11 11 11 10 10 10 10 9 8 8 7 7 7 7 7 6 5 5 4 3 3 2 2 2 2
15 16 15 15 14 15 14 13 13 13 12 12 12 12 12 11 11 11 11 11 10 10 9 9 9 9 8 7 7 7 8 7 6 5 5 4 3 3 3 2 2 1 1
16 16 15 15 15 14 14 14 14 13 13 12 12 12 11 11 11 11 11 10 10 9 9 9 8 8 7 7 7 8 8 7 6 4 3 3 2 2 2 1 1 0 0
17 17 17 16 16 15 14 14 15 14 13 13 13 12 12 12 11 11 10 9 9 9 9 8 8 7 7 7 7 7 7 7 5 3 3 2 1 0 -0 -0 -0 -0 -0
17 17 17 17 16 16 16 15 14 14 13 13 13 12 11 11 10 10 9 9 9 9 8 8 7 7 7 7 7 7 6 5 4 2 2 1 0 -0 -1 -1 -1 -1 -1
17 17 17 17 17 16 15 14 14 13 14 13 13 12 11 10 9 9 9 9 9 8 8 7 7 7 7 7 7 6 5 4 3 1 1 -0 -1 -1 -1 -2 -2 -2 -2
18 17 17 17 17 17 16 14 14 14 14 14 14 13 11 10 9 10 10 10 9 9 8 7 7 7 6 5 5 5 4 3 2 0 -0 -1 -1 -1 -2 -2 -2 -3 -3
19 18 18 17 17 17 16 15 16 13 13 13 13 12 11 10 9 9 10 10 10 9 8 7 7 6 6 5 4 4 3 2 0 -0 -1 -1 -2 -2 -2 -2 -3 -3 -3
17 18 18 18 18 17 17 16 16 16 15 14 13 12 11 11 10 10 10 9 9 8 7 6 6 6 6 4 4 3 2 1 -0 -1 -1 -2 -2 -2 -2 -3 -3 -4 -4
16 17 18 18 17 17 17 16 16 15 15 14 13 12 11 11 11 11 10 9 8 7 7 6 5 4 4 3 3 2 1 -0 -1 -1 -1 -2 -2 -2 -3 -3 -3 -4 -4
18 18 18 17 17 17 16 16 16 16 15 14 13 12 12 12 12 10 9 9 8 7 6 6 4 3 3 2 2 1 0 -0 -1 -1 -1 -2 -2 -2 -3 -3 -4 -4 -5
18 17 18 17 18 18 17 16 16 15 15 14 13 13 13 12 10 10 9 8 7 6 6 5 3 3 2 2 1 1 0 -0 -1 -1 -2 -2 -2 -3 -3 -4 -4 -5 -5
18 17 17 18 17 16 16 16 16 16 15 14 14 13 11 11 10 10 9 8 7 6 5 4 3 2 1 1 1 0 -0 -0 -1 -1 -2 -2 -3 -3 -3 -4 -4 -5 -6
18 18 17 18 16 15 15 16 16 16 15 14 13 11 10 10 10 9 8 7 6 5 4 3 2 1 -0 -0 0 0 -0 -1 -1 -1 -2 -2 -3 -3 -4 -4 -5 -5 -6
17 17 16 16 15 15 15 15 15 14 14 12 10 10 9 9 9 8 7 6 5 4 3 2 1 -0 -0 -0 0 -0 -0 -1 -1 -1 -2 -3 -3 -4 -4 -5 -5 -6 -7
15 15 15 14 14 13 13 13 13 12 11 10 10 9 8 8 8 7 6 5 4 3 1 0 -1 -1 -0 -2 -1 -0 -1 -1 -1 -2 -2 -3 -3 -4 -4 -5 -6 -6 -7
14 14 14 14 14 13 13 12 11 10 10 9 9 8 8 7 6 5 4 4 2 1 -0 -1 -1 -1 -1 -2 -1 -1 -1 -1 -2 -2 -2 -3 -3 -4 -5 -5 -6 -6 -8
14 14 14 14 14 14 14 13 12 10 9 8 7 6 6 5 4 3 1 0 -0 -1 -2 -1 -1 -1 -2 -1 -1 -1 -2 -2 -2 -2 -3 -3 -4 -4 -5 -6 -6 -7 -8
12 12 13 13 12 12 12 11 10 8 7 6 5 4 4 3 2 1 -1 -2 -1 -1 -1 -1 -1 -2 -1 -1 -1 -1 -2 -2 -3 -3 -3 -4 -4 -5 -5 -6 -6 -7 -7
12 12 12 11 11 10 10 10 8 6 5 4 3 2 1 0 -1 -1 -1 -1 -1 -1 -1 -2 -2 -1 -1 -1 -1 -2 -3 -3 -3 -3 -4 -4 -4 -5 -5 -6 -6 -7 -7
10 10 9 10 9 8 7 7 5 4 2 2 1 1 0 -0 -1 -0 -1 -1 -1 -2 -1 -2 -1 -1 -2 -2 -2 -3 -3 -3 -3 -4 -4 -5 -5 -6 -6 -6 -6 -6 -8
8 7 8 7 5 4 4 3 2 0 0 0 -0 -0 -0 -1 -1 -1 -1 -1 -1 -2 -2 -2 -2 -2 -2 -3 -3 -3 -3 -3 -4 -4 -4 -5 -5 -5 -6 -7 -7 -7 -8
6 5 5 4 2 2 1 1 -0 -1 -1 -1 -1 -1 -1 -1 -2 -2 -2 -2 -2 -2 -2 -3 -2 -2 -2 -3 -4 -4 -4 -4 -4 -4 -5 -5 -6 -6 -6 -6 -7 -8 -8
4 3 3 2 1 0 0 -0 -1 -1 -1 -1 -1 -1 -1 -1 -2 -2 -2 -2 -3 -3 -3 -3 -4 -4 -4 -4 -4 -4 -4 -5 -5 -5 -5 -6 -6 -6 -6 -7 -7 -8 -8
2 2 2 1 0 -1 -1 -1 -1 -1 -1 -1 -1 -2 -2 -2 -2 -2 -3 -3 -3 -4 -4 -5 -5 -5 -5 -5 -5 -5 -5 -5 -5 -6 -7 -6 -6 -6 -6 -7 -7 -7 -8
1 0 -0 -0 -1 -1 -1 -1 -1 -2 -2 -2 -2 -3 -3 -3 -3 -3 -3 -3 -3 -4 -4 -5 -6 -6 -7 -6 -6 -6 -6 -5 -5 -6 -7 -6 -6 -6 -6 -7 -7 -7 -7

GFSMW_850_temp_033.txt.gz
Temp
15 14 14 13 13 13 12 12 12 12 12 12 12 11 12 12 11 12 11 12 11 11 10 10 10 10 9 9 8 8 7 7 7 6 6 5 5 4 3 3 3 2 2
14 15 14 14 13 13 13 13 13 13 13 12 12 12 12 11 12 11 11 11 11 11 10 10 10 9 9 8 8 8 7 7 7 6 5 4 3 3 3 2 2 1 1
16 16 15 15 15 14 14 13 13 13 12 13 12 12 11 11 10 11 11 11 11 10 10 9 9 9 8 7 7 7 7 6 7 7 5 4 4 2 2 2 1 1 0
16 17 16 16 15 15 14 14 14 13 13 12 12 12 12 12 11 11 11 10 10 9 9 9 9 8 7 7 7 6 7 7 6 6 5 4 3 2 2 0 0 0 -0
16 17 17 17 17 16 15 15 14 13 13 13 13 13 13 13 11 10 10 9 9 9 8 8 8 8 8 8 8 6 5 5 6 5 4 3 2 1 0 1 0 -1 -1
18 17 17 17 16 16 16 15 14 14 13 13 13 13 13 12 10 10 10 9 9 8 8 8 8 8 8 7 6 6 6 5 5 5 3 2 0 0 -1 -1 -1 -2 -2
18 18 18 18 17 17 16 15 15 14 11 12 13 12 12 11 10 10 10 9 9 9 9 9 8 8 7 6 6 6 5 5 4 3 2 1 0 -1 -1 -2 -1 -2 -2
18 19 19 19 18 18 16 15 15 13 14 14 13 12 11 11 10 10 10 9 9 9 8 7 7 6 6 6 5 4 4 4 3 2 2 1 -0 -1 -2 -2 -2 -2 -2
18 19 18 18 18 18 18 17 16 13 14 15 14 13 12 11 11 10 10 9 9 8 8 7 7 6 5 5 5 4 4 3 2 1 0 -0 -1 -2 -2 -2 -2 -3 -3
17 17 17 17 17 16 17 16 16 15 15 16 13 12 12 12 11 10 11 10 9 8 7 7 6 5 5 4 4 4 3 2 1 0 -0 -1 -1 -2 -2 -2 -3 -3 -4
19 18 17 17 16 16 16 16 15 16 16 15 14 14 13 13 12 11 11 10 8 7 7 6 5 5 5 5 3 2 2 2 0 -1 -1 -1 -1 -2 -2 -3 -3 -4 -4
19 19 18 17 17 16 16 16 16 16 16 15 15 14 13 13 12 12 11 10 8 7 6 5 5 4 3 2 2 1 -0 1 -0 -1 -1 -1 -2 -2 -2 -3 -3 -4 -4
18 19 19 18 18 17 17 16 16 16 16 15 15 14 14 13 12 12 11 9 9 7 6 5 5 4 2 1 0 0 -0 -0 -0 -1 -1 -1 -2 -2 -3 -3 -3 -4 -4
18 17 16 16 16 16 16 16 16 16 16 15 14 14 13 12 10 9 9 9 7 6 6 5 4 2 1 0 -0 0 -0 -1 -1 -1 -1 -1 -2 -2 -3 -3 -4 -4 -5
15 15 15 15 15 15 14 14 13 13 12 12 11 10 10 10 9 9 8 7 6 5 4 4 2 1 0 -1 -0 -1 -1 -1 -0 -1 -1 -1 -2 -2 -3 -3 -4 -4 -5
13 14 14 14 14 13 13 13 12 12 11 10 10 9 9 8 8 7 6 5 4 3 3 1 0 -1 -2 -1 -1 -1 -1 -1 -1 -1 -1 -1 -2 -2 -3 -4 -4 -5 -5
12 13 13 14 14 13 13 13 12 12 10 9 8 8 7 7 6 6 5 4 3 2 1 -1 -2 -1 -1 -1 -1 -2 -1 -1 -1 -1 -2 -2 -2 -3 -3 -4 -4 -5 -5
12 13 13 13 13 13 13 12 12 11 10 9 7 6 6 5 5 4 3 2 1 -0 0 -1 -1 -1 -1 -2 -1 -2 -2 -2 -1 -2 -2 -2 -2 -3 -3 -4 -5 -5 -6
12 12 12 12 12 11 11 11 10 9 8 7 5 5 4 4 3 2 1 0 -0 -0 -1 -1 -1 -1 -1 -2 -2 -2 -2 -2 -1 -2 -2 -3 -3 -3 -4 -4 -5 -5 -6
11 11 11 10 10 10 9 9 9 7 6 5 4 3 2 2 1 1 0 -0 -1 -1 -1 -1 -1 -1 -2 -2 -2 -2 -2 -2 -2 -2 -3 -3 -3 -4 -4 -5 -5 -6 -6
9 9 9 9 9 8 7 8 6 4 2 1 1 0 -0 -0 -1 -1 -1 -1 -1 -1 -1 -1 -1 -2 -2 -2 -2 -3 -3 -3 -3 -3 -3 -3 -4 -4 -5 -5 -5 -5 -6
7 7 8 7 6 5 5 4 3 0 0 0 -0 -0 -1 -1 -1 -1 -1 -1 -1 -1 -1 -2 -2 -2 -2 -3 -3 -3 -4 -4 -4 -4 -4 -4 -4 -4 -5 -5 -5 -6 -7
6 5 6 5 3 3 2 2 -0 -0 -0 -0 -0 -0 -1 -1 -1 -1 -1 -1 -2 -2 -3 -3 -3 -3 -3 -3 -4 -4 -4 -5 -5 -5 -5 -5 -5 -5 -5 -5 -6 -6 -6
4 4 4 3 1 0 1 0 -0 -1 -1 -1 -1 -1 -1 -2 -2 -2 -3 -3 -3 -3 -4 -4 -5 -5 -6 -7 -8 -8 -7 -6 -5 -5 -5 -5 -5 -6 -6 -6 -6 -7 -7
2 2 2 1 -0 -1 -0 -1 -1 -1 -1 -1 -2 -2 -2 -2 -2 -2 -3 -3 -4 -5 -5 -6 -8 -8 -8 -9 -9 -9 -9 -8 -8 -7 -6 -6 -6 -6 -6 -6 -6 -6 -7
1 1 0 -0 -1 -1 -1 -1 -1 -2 -2 -2 -2 -2 -2 -2 -3 -3 -3 -4 -5 -5 -6 -7 -8 -9 -9 -9 -9 -9 -8 -8 -8 -9 -8 -7 -7 -6 -6 -7 -6 -6 -7

GFSMW_850_temp_036.txt.gz
Temp
15 14 13 12 11 11 10 10 10 10 11 10 10 11 10 10 11 12 12 12 12 11 11 11 10 10 10 10 9 9 9 9 7 6 7 5 4 3 4 3 3 3 2
16 15 14 13 12 12 11 11 11 11 11 11 11 11 11 10 10 11 12 12 12 11 11 11 10 10 10 9 9 9 8 6 6 6 7 8 6 4 3 3 2 2 2
17 16 14 14 13 12 12 11 12 12 11 11 11 10 10 11 11 12 12 11 11 11 11 10 10 10 9 9 9 9 8 6 6 7 6 8 9 6 5 2 2 1 2
18 18 16 15 14 13 13 12 12 12 12 11 11 10 11 12 13 12 11 11 11 10 10 10 9 9 9 9 9 8 7 7 6 5 5 5 4 6 6 4 2 1 1
19 18 18 16 15 14 13 13 12 12 12 11 11 12 13 11 10 11 11 11 10 10 9 9 9 9 9 9 8 7 7 5 7 5 4 4 3 3 3 5 5 3 2
19 19 18 17 16 15 13 14 13 12 12 11 13 12 12 11 10 9 10 11 10 9 9 8 8 8 8 8 7 6 7 7 5 4 3 4 4 4 3 3 3 3 2
19 19 18 18 17 16 14 14 12 13 13 12 13 12 12 11 11 11 11 10 11 10 9 8 8 8 7 7 6 6 6 6 5 5 3 2 2 2 2 2 2 2 2
20 19 19 18 18 16 15 14 15 14 14 13 13 13 13 12 11 9 11 10 10 9 8 8 8 7 7 6 6 6 5 5 4 3 2 2 1 1 1 1 1 1 1
20 20 19 19 17 16 14 14 13 13 14 13 14 14 13 12 11 10 11 10 9 8 7 8 8 7 6 6 6 5 5 4 2 1 1 1 1 0 0 -0 -0 -0 0
18 18 18 18 18 17 15 13 13 13 13 13 13 14 13 13 12 10 10 10 9 8 8 8 7 7 6 6 5 4 3 1 1 1 1 0 0 -0 -0 -0 -0 -1 -1
19 18 17 16 15 15 14 13 13 13 13 11 12 13 13 13 12 11 12 11 10 9 8 8 7 7 5 5 4 2 1 1 0 0 0 -0 -0 -0 -0 -1 -1 -1 -1
19 17 16 15 15 14 14 13 13 13 13 12 11 11 13 13 13 13 12 11 10 9 8 7 7 5 4 3 2 1 1 -0 -0 -0 0 -0 -0 -1 -1 -1 -1 -1 -1
19 17 15 15 14 14 13 13 12 12 12 11 11 13 14 13 13 12 12 11 9 8 7 4 5 4 3 3 1 -0 -0 0 -1 -0 -0 -0 -0 -1 -1 -1 -1 -1 -1
17 18 16 14 14 13 13 13 14 13 14 14 13 13 13 13 11 9 9 8 8 7 5 3 3 3 1 1 1 -1 -0 -0 -2 -2 -1 -1 -1 -1 -1 -1 -1 -2 -2
16 15 15 14 13 12 12 11 12 12 11 11 10 10 9 9 8 8 8 8 7 7 5 4 3 2 1 0 -1 -0 -0 -1 -1 -2 -2 -2 -1 -1 -1 -1 -1 -2 -2
14 13 13 12 12 11 10 11 11 11 11 11 9 9 9 8 8 8 7 6 6 5 4 2 2 -1 -2 -0 -0 -0 -1 -1 -2 -2 -2 -1 -2 -1 -1 -1 -2 -2 -3
11 11 10 10 10 11 11 13 12 11 10 10 9 8 7 7 6 6 5 5 4 3 3 2 1 -0 -2 -1 -1 -1 -2 -2 -3 -2 -2 -2 -1 -2 -3 -2 -2 -3 -3
9 9 9 10 11 12 12 11 10 10 9 8 7 6 5 5 5 4 4 3 3 2 2 1 0 -2 -1 -1 -1 -1 -2 -3 -3 -3 -2 -2 -2 -2 -2 -3 -3 -4 -4
8 9 10 10 11 11 10 10 10 9 7 6 5 4 4 4 3 3 2 2 1 -0 -1 -1 -1 -1 -1 -1 -2 -2 -2 -3 -3 -3 -3 -3 -3 -3 -3 -3 -4 -4 -4
7 8 9 10 10 10 9 9 7 6 6 4 3 2 1 0 -0 -0 -1 -0 -1 -0 -1 -1 -1 -1 -1 -2 -2 -2 -3 -4 -4 -4 -4 -4 -3 -3 -3 -3 -3 -5 -4
7 7 7 9 8 7 7 7 6 5 3 1 0 0 -0 0 -0 -0 -0 -1 -1 -1 -2 -1 -1 -2 -3 -3 -3 -3 -4 -4 -5 -4 -4 -4 -4 -4 -3 -4 -4 -4 -4
6 6 7 5 4 4 5 5 4 2 2 1 1 0 -0 -0 -1 -1 -1 -1 -2 -2 -2 -2 -3 -3 -4 -4 -5 -5 -5 -5 -6 -6 -6 -5 -5 -5 -5 -5 -5 -5 -5
4 3 4 3 2 2 3 4 3 1 0 -0 -0 0 -0 -0 -0 -1 -1 -3 -3 -3 -4 -4 -5 -5 -6 -6 -7 -6 -6 -7 -7 -7 -7 -6 -6 -6 -5 -5 -5 -5 -6
3 2 2 3 2 1 2 2 1 -0 -0 0 -0 -0 -1 -1 -1 -2 -2 -3 -4 -4 -5 -6 -6 -7 -7 -7 -8 -9 -10 -10 -10 -9 -8 -7 -7 -7 -7 -6 -6 -6 -6
2 1 1 1 1 1 1 0 -1 -1 -0 -1 -1 -1 -1 -2 -2 -3 -2 -3 -4 -4 -4 -6 -7 -9 -10 -10 -9 -10 -11 -10 -10 -9 -8 -9 -8 -8 -7 -7 -6 -6 -6
0 -0 -0 1 1 1 0 -1 -1 -1 -1 -1 -1 -2 -2 -2 -3 -4 -7 -4 -5 -6 -6 -7 -8 -8 -9 -10 -10 -10 -10 -10 -10 -10 -9 -8 -8 -8 -7 -7 -7 -7 -7